This is the latest recevied weather packets stored in our database for station/object PY2UEP-1. If no packets are shown the sender has not sent any weather packets the latest 10 day(s).
| Time | Temp. | Humidity | Pressure | Rain* | Wind** | Luminosity | Snow |
|---|---|---|---|---|---|---|---|
| 1787960702 | 25° C | 66% | 1012.9 hPa | 0 mm | - | - | - |
| 1787960402 | 25° C | 67% | 1012.9 hPa | 0 mm | - | - | - |
| 1787960102 | 25° C | 66% | 1012.9 hPa | 0 mm | - | - | - |
| 1787959802 | 25° C | 66% | 1012.8 hPa | 0 mm | - | - | - |
| 1787959502 | 25° C | 66% | 1012.8 hPa | 0 mm | - | - | - |
| 1787959202 | 25° C | 65% | 1012.6 hPa | 0 mm | - | - | - |
| 1787958902 | 25.56° C | 64% | 1012.6 hPa | 0 mm | - | - | - |
| 1787958602 | 25° C | 65% | 1012.6 hPa | 0 mm | - | - | - |
| 1787958302 | 25.56° C | 65% | 1012.6 hPa | 0 mm | - | - | - |
| 1787958002 | 25.56° C | 64% | 1012.6 hPa | 0 mm | - | - | - |
| 1787957702 | 25.56° C | 64% | 1012.5 hPa | 0 mm | - | - | - |
| 1787957402 | 25.56° C | 64% | 1012.5 hPa | 0 mm | - | - | - |
| 1787957102 | 25.56° C | 64% | 1012.5 hPa | 0 mm | - | - | - |
| 1787956802 | 25.56° C | 65% | 1012.4 hPa | 0 mm | - | - | - |
| 1787956502 | 25.56° C | 65% | 1012.4 hPa | 0 mm | - | - | - |
| 1787956202 | 26.11° C | 64% | 1012.3 hPa | 0 mm | - | - | - |
| 1787955902 | 26.11° C | 63% | 1012.3 hPa | 0 mm | - | - | - |
| 1787955602 | 26.67° C | 60% | 1012.2 hPa | 0 mm | - | - | - |
| 1787955302 | 26.67° C | 59% | 1012.2 hPa | 0 mm | - | - | - |
| 1787955002 | 26.67° C | 58% | 1012.2 hPa | 0 mm | - | - | - |
| 1787954702 | 26.67° C | 59% | 1012.1 hPa | 0 mm | - | - | - |
| 1787954402 | 26.67° C | 56% | 1011.9 hPa | 0 mm | - | - | - |
| 1787954102 | 26.67° C | 58% | 1012 hPa | 0 mm | - | - | - |
| 1787953802 | 26.67° C | 57% | 1012 hPa | 0 mm | - | - | - |
| 1787953502 | 27.22° C | 57% | 1011.7 hPa | 0 mm | - | - | - |
* Rain since midnight (hover to see other rain measurements)
** Current wind speed in m/s (hover to see current wind gust speed)